Location: Nairn
(57.5833°N, 3.8667°W)
Time: 10:01:20
(UTC+00:00)

N. Korean satellite - Visible Passes

Search period start: 27 October 2020 00:00
Search period end: 06 November 2020 00:00
Orbit: 452 x 505 km, 97.2° (Epoch: 26 October)

Date Brightness Start Highest point End Pass type
(mag) Time Alt. Az. Time Alt. Az. Time Alt. Az.
27 Oct 8.6 05:23:50 10° NNE 05:26:54 30° E 05:29:57 10° SSE visible
27 Oct 9.4 17:40:45 10° SSW 17:43:38 23° W 17:46:30 10° NW visible
28 Oct 9.6 04:58:11 10° NE 05:00:33 17° E 05:02:55 10° SE visible
28 Oct 6.5 06:30:52 10° N 06:34:15 55° WNW 06:37:35 10° SSW visible
28 Oct 8.2 17:13:59 10° S 17:17:21 39° W 17:20:41 10° NNW visible
29 Oct 10.3 04:33:54 10° E 04:34:07 10° E 04:34:19 10° E visible
29 Oct 6.6 06:04:40 10° NNE 06:08:07 79° ESE 06:11:33 10° SSW visible
30 Oct 7.9 05:38:37 10° NNE 05:41:54 41° E 05:45:10 10° S visible
30 Oct 9.8 17:56:19 10° SW 17:58:42 17° W 18:01:03 10° NW visible
31 Oct 9.0 05:12:46 10° NE 05:15:36 23° E 05:18:25 10° SSE visible
31 Oct 6.9 06:45:52 10° N 06:49:06 39° WNW 06:52:19 10° SW visible
31 Oct 8.9 17:29:15 10° SSW 17:32:20 28° W 17:35:25 10° NNW visible
01 Nov 9.9 04:47:19 10° NE 04:49:12 14° E 04:51:04 10° ESE visible
01 Nov 6.3 06:19:35 10° NNE 06:23:01 73° WNW 06:26:26 10° SSW visible
01 Nov 7.6 17:02:38 10° S 17:06:03 51° W 17:09:27 10° NNW visible
02 Nov 7.0 05:53:25 10° NNE 05:56:50 60° ESE 06:00:13 10° S visible
02 Nov 10.1 18:12:14 10° WSW 18:13:44 12° W 18:15:15 10° WNW visible
03 Nov 8.4 05:27:25 10° NNE 05:30:34 32° E 05:33:41 10° SSE visible
03 Nov 9.5 17:44:36 10° SW 17:47:18 21° W 17:50:00 10° NW visible
04 Nov 9.4 05:01:41 10° NE 05:04:12 19° E 05:06:43 10° SE visible
04 Nov 6.6 06:34:29 10° N 06:37:50 50° WNW 06:41:10 10° SW visible
04 Nov 8.4 17:17:43 10° SSW 17:20:58 36° W 17:24:12 10° NNW visible
05 Nov 10.1 04:36:43 10° ENE 04:37:45 11° E 04:38:47 10° ESE visible
05 Nov 6.4 06:08:14 10° NNE 06:11:41 87° ESE 06:15:08 10° SSW visible
